DW9417 Weather Reports


Display with metric or nautical units.
time (UTC)temp
F
wind
direction
speed
MPH
gust
MPH
rain 1hr
in
rain 24hr
in
rain mn
in
humidity
%
barometer
mb
20260902043012 60 234 2.0 7.0 0.00 0.00 0.00 67 1022.3
20260902041511 60 257 3.0 9.0 0.00 0.00 0.00 63 1022.3
20260902040010 60 231 4.0 10.0 0.00 0.00 0.00 62 1022.5
20260902034508 59 269 0.0 7.0 0.00 0.00 0.00 65 1022.5
20260902033007 60 350 2.0 10.0 0.00 0.00 0.00 66 1022.6
20260902031503 58 238 2.0 7.0 0.00 0.00 0.00 69 1022.8
20260902030003 58 302 2.0 7.0 0.00 0.00 0.00 65 1023.0
20260902024502 58 277 2.0 7.0 0.00 0.00 0.00 63 1023.1
20260902023112 58 226 3.0 8.0 0.00 0.00 0.00 67 1023.1
20260902021615 57 304 2.0 5.0 0.00 0.00 0.00 67 1023.1
20260902020058 56 288 2.0 6.0 0.00 0.00 0.00 66 1023.2
20260902014551 56 290 2.0 7.0 0.00 0.00 0.00 70 1023.2
20260902013047 55 132 0.0 0.0 0.00 0.00 0.00 76 1023.3
20260902011545 53 132 0.0 0.0 0.00 0.00 0.00 79 1023.5
20260902010055 53 132 0.0 0.0 0.00 0.00 0.00 81 1023.5
20260902004544 52 132 0.0 0.0 0.00 0.00 0.00 86 1023.5
20260902003033 51 132 0.0 0.0 0.00 0.00 0.00 88 1023.4
20260902001530 49 132 0.0 0.0 0.00 0.00 0.00 90 1023.4
20260902000042 48 132 0.0 0.0 0.00 0.00 0.00 90 1023.6
20260901234546 47 74 0.0 0.0 0.00 0.00 0.00 91 1023.6
20260901233016 46 78 0.0 0.0 0.00 0.00 0.00 91 1023.6
20260901231515 46 132 0.0 0.0 0.00 0.00 0.00 91 1023.8
20260901230014 46 132 0.0 0.0 0.00 0.00 0.00 91 1023.6
20260901224512 46 132 0.0 0.0 0.00 0.00 0.00 91 1023.4
20260901223012 45 131 0.0 0.0 0.00 0.00 0.00 92 1023.3
20260901221519 45 128 0.0 0.0 0.00 0.00 0.00 92 1023.1
20260901220007 45 125 0.0 0.0 0.00 0.00 0.00 91 1023.1
20260901214509 44 128 0.0 0.0 0.00 0.00 0.00 91 1023.1
20260901213004 44 126 0.0 0.0 0.00 0.00 0.00 92 1023.1
20260901211509 44 122 0.0 0.0 0.00 0.00 0.00 92 1023.1
20260901210002 44 120 0.0 0.0 0.00 0.00 0.00 92 1023.0
20260901204601 43 119 0.0 0.0 0.00 0.00 0.00 92 1022.9
20260901203059 42 130 0.0 0.0 0.00 0.00 0.00 91 1022.9
20260901201556 42 132 0.0 0.0 0.00 0.00 0.00 90 1022.8
20260901194604 42 131 0.0 0.0 0.00 0.00 0.00 90 1022.8
20260901193054 43 123 0.0 0.0 0.00 0.00 0.00 91 1022.8
20260901191550 43 360 0.0 0.0 0.00 0.00 0.00 91 1022.8
20260901184547 43 121 0.0 0.0 0.00 0.00 0.00 91 1023.0
20260901183048 42 92 0.0 0.0 0.00 0.00 0.00 91 1022.9
20260901181550 42 360 0.0 0.0 0.00 0.00 0.00 91 1023.0
20260901180041 42 132 0.0 0.0 0.00 0.00 0.00 91 1023.0
20260901174539 42 133 0.0 0.0 0.00 0.01 0.00 91 1023.0
20260901173052 41 133 0.0 0.0 0.00 0.01 0.00 90 1023.0
20260901171535 41 133 0.0 0.0 0.00 0.01 0.00 90 1023.0
20260901170032 41 133 0.0 0.0 0.00 0.01 0.00 90 1023.1
20260901164530 41 133 0.0 0.0 0.00 0.02 0.00 90 1023.1
20260901163027 41 133 0.0 0.0 0.00 0.02 0.00 90 1023.1
20260901161524 41 133 0.0 0.0 0.00 0.02 0.00 89 1023.1
20260901160022 41 133 0.0 0.0 0.00 0.02 0.00 89 1023.1
20260901154520 41 133 0.0 0.0 0.00 0.02 0.02 89 1023.0
20260901153033 41 133 0.0 0.0 0.00 0.02 0.02 88 1022.9
20260901151517 42 133 0.0 0.0 0.00 0.02 0.02 89 1023.0
20260901150015 42 133 0.0 0.0 0.00 0.02 0.02 88 1023.3
20260901144519 42 133 0.0 0.0 0.00 0.02 0.02 87 1023.4
20260901143011 43 133 0.0 0.0 0.00 0.02 0.02 87 1023.4
20260901141511 43 133 0.0 0.0 0.00 0.02 0.02 86 1023.5
20260901140006 44 133 0.0 0.0 0.00 0.02 0.02 86 1023.6
20260901134506 44 133 0.0 0.0 0.00 0.02 0.02 85 1023.6
20260901133006 45 133 0.0 0.0 0.00 0.02 0.02 85 1023.6
20260901131611 45 132 0.0 0.0 0.00 0.02 0.02 83 1023.6
20260901130057 47 96 0.0 0.0 0.00 0.02 0.02 82 1023.5
20260901124557 48 98 0.0 0.0 0.00 0.02 0.02 81 1023.7
20260901123053 49 94 0.0 0.0 0.00 0.02 0.02 80 1023.7
20260901121608 50 95 0.0 0.0 0.00 0.02 0.02 79 1023.5
20260901120101 52 111 0.0 0.0 0.00 0.02 0.02 79 1023.3
20260901114559 54 93 0.0 0.0 0.00 0.02 0.02 77 1023.2
20260901113051 54 92 0.0 0.0 0.00 0.02 0.02 73 1023.2
20260901111553 54 94 0.0 0.0 0.00 0.02 0.02 77 1023.3
20260901110049 55 94 0.0 0.0 0.00 0.02 0.02 76 1023.2
20260901104549 56 94 0.0 0.0 0.00 0.02 0.02 73 1023.2
20260901103052 56 94 0.0 0.0 0.00 0.02 0.02 72 1023.0
20260901101552 57 128 0.0 0.0 0.00 0.02 0.02 73 1023.0
20260901100047 58 129 0.0 0.0 0.00 0.02 0.02 70 1023.0
20260901094547 58 125 0.0 0.0 0.00 0.02 0.02 63 1022.9
20260901093114 59 132 0.0 0.0 0.00 0.02 0.02 62 1022.9
20260901091600 59 132 0.0 0.0 0.00 0.02 0.02 63 1022.9
20260901090046 59 132 0.0 0.0 0.00 0.02 0.02 60 1022.9
20260901084546 60 132 0.0 0.0 0.00 0.02 0.02 57 1022.8
20260901083048 60 132 0.0 3.0 0.00 0.02 0.02 59 1022.7
20260901081544 60 132 0.0 3.0 0.00 0.02 0.02 55 1022.7
20260901080047 61 133 0.0 2.0 0.00 0.02 0.02 53 1022.7
20260901074545 60 133 1.0 4.0 0.00 0.02 0.02 51 1022.5
20260901073042 60 216 1.0 5.0 0.00 0.02 0.02 51 1022.5
20260901071542 59 117 1.0 6.0 0.00 0.02 0.02 57 1022.6
20260901070049 60 122 5.0 10.0 0.00 0.02 0.02 52 1022.7
20260901064541 61 170 3.0 7.0 0.00 0.02 0.02 53 1022.8
20260901063040 60 229 2.0 10.0 0.00 0.02 0.02 53 1022.8
20260901061537 60 207 1.0 6.0 0.00 0.02 0.02 51 1022.9
20260901060036 60 189 2.0 7.0 0.00 0.02 0.02 52 1023.1
20260901054537 59 201 4.0 8.0 0.00 0.02 0.02 54 1023.1
20260901053037 60 191 0.0 6.0 0.00 0.02 0.02 51 1023.3
20260901051530 59 202 2.0 7.0 0.00 0.02 0.02 56 1023.4
20260901050030 58 242 3.0 9.0 0.00 0.02 0.02 56 1023.6
20260901044529 59 230 6.0 11.0 0.00 0.02 0.02 55 1023.7